This is the latest recevied weather packets stored in our database for station/object W2JGA. If no packets are shown the sender has not sent any weather packets the latest 1 day(s).
| Time | Temp. | Humidity | Pressure | Rain* | Wind** | Luminosity | Snow |
|---|---|---|---|---|---|---|---|
| 1778039189 | 19.44° C | 50% | 1015.4 hPa | 0 mm | - | 0 W/m² | - |
| 1778038583 | 19.44° C | 46% | 1015.4 hPa | 0 mm | - | 0 W/m² | - |
| 1778038280 | 20° C | 43% | 1015.4 hPa | 0 mm | - | 0 W/m² | - |
| 1778037977 | 20° C | 42% | 1015 hPa | 0 mm | - | 0 W/m² | - |
| 1778037674 | 20° C | 41% | 1014.7 hPa | 0 mm | - | 0 W/m² | - |
| 1778037371 | 20° C | 41% | 1015 hPa | 0 mm | - | 0 W/m² | - |
| 1778037068 | 20° C | 41% | 1014.7 hPa | 0 mm | - | 0 W/m² | - |
| 1778036766 | 20° C | 40% | 1014.7 hPa | 0 mm | - | 0 W/m² | - |
| 1778036160 | 20.56° C | 39% | 1014.3 hPa | 0 mm | - | 0 W/m² | - |
| 1778035856 | 20.56° C | 38% | 1014.3 hPa | 0 mm | - | 0 W/m² | - |
| 1778035553 | 20.56° C | 38% | 1014.3 hPa | 0 mm | - | 0 W/m² | - |
| 1778035250 | 20.56° C | 38% | 1014.3 hPa | 0 mm | - | 0 W/m² | - |
| 1778034945 | 20.56° C | 38% | 1014.3 hPa | 0 mm | - | 0 W/m² | - |
| 1778034038 | 21.11° C | 38% | 1013.9 hPa | 0 mm | - | 0 W/m² | - |
| 1778033433 | 20.56° C | 38% | 1013.9 hPa | 0 mm | - | 2 W/m² | - |
| 1778033130 | 21.11° C | 39% | 1013.9 hPa | 0 mm | - | 4 W/m² | - |
| 1778032525 | 21.11° C | 39% | 1013.6 hPa | 0 mm | - | 13 W/m² | - |
| 1778032221 | 21.67° C | 39% | 1013.2 hPa | 0 mm | - | 24 W/m² | - |
| 1778031919 | 21.67° C | 39% | 1013.2 hPa | 0 mm | - | 35 W/m² | - |
| 1778031615 | 21.67° C | 39% | 1013.2 hPa | 0 mm | - | 41 W/m² | - |
| 1778031313 | 21.67° C | 39% | 1013.2 hPa | 0 mm | - | 43 W/m² | - |
| 1778030100 | 22.22° C | 39% | 1013.2 hPa | 0 mm | - | 35 W/m² | - |
| 1778029796 | 22.22° C | 38% | 1013.2 hPa | 0 mm | - | 125 W/m² | - |
| 1778029191 | 22.78° C | 35% | 1012.9 hPa | 0 mm | - | 153 W/m² | - |
| 1778028889 | 23.33° C | 34% | 1012.9 hPa | 0 mm | - | 189 W/m² | - |
* Rain latest hour (hover to see other rain measurements)
** Current wind speed in m/s (hover to see current wind gust speed)